Location: Unspecified
(0.0000°N, 0.0000°E)
Time: 22:42:02
(UTC+00:00)

Tiangong 2 - Pass Details

Date: 26 April 2018
Orbit: 381 x 388 km, 42.8° (Epoch: 24 April)

Event Time Altitude Azimuth Distance (km) Brightness Sun altitude
Exits shadow 04:56:58 20° 204° (SSW) 955 2.7 -14.8°
Maximum altitude 04:58:53 50° 135° (SE) 492 1.8 -14.3°
Drops below altitude 10° 05:01:57 10° 58° (ENE) 1,394 5.1 -13.6°
Sets 05:04:03 0° 52° (NE) 2,245 6.3 -13.1°
